QPF
0.01 0.01 0.01 0.01 0.00 0.00 0.01 0.01 0.03 0.04 0.03 0.05 0.06 0.06 0.05 0.05 0.04 0.04 0.04 0.03 0.03 0.03 0.03 0.03 0.03 0.03 0.02 0.02 0.01 0.01 0.01 0.02 0.02 0.02 0.02 0.02 0.03 0.03 0.03 0.02 0.02 0.02 0.02 0.02
0.02 0.01 0.01 0.01 0.01 0.00 0.01 0.02 0.04 0.04 0.04 0.08 0.09 0.10 0.09 0.09 0.08 0.07 0.07 0.06 0.06 0.05 0.04 0.04 0.04 0.03 0.03 0.02 0.02 0.02 0.01 0.01 0.01 0.01 0.01 0.01 0.01 0.01 0.01 0.01 0.01 0.01 0.01 0.01
0.04 0.01 0.01 0.02 0.01 0.01 0.02 0.02 0.04 0.05 0.05 0.08 0.10 0.11 0.11 0.12 0.11 0.11 0.10 0.11 0.10 0.08 0.07 0.06 0.04 0.02 0.02 0.02 0.01 0.01 0.01 0.01 0.01 0.01 0.01 0.01 0.01 0.01 0.01 0.01 0.01 0.01 0.00 0.00
0.02 0.02 0.02 0.02 0.01 0.01 0.01 0.01 0.02 0.05 0.09 0.12 0.14 0.15 0.17 0.18 0.18 0.18 0.16 0.15 0.13 0.10 0.07 0.05 0.04 0.03 0.01 0.01 0.01 0.01 0.01 0.01 0.01 0.00 0.00 0.00 0.00 0.00 0.00 0.01 0.00 0.00 0.00 0.00
0.02 0.02 0.01 0.02 0.01 0.01 0.02 0.03 0.03 0.04 0.09 0.14 0.16 0.15 0.19 0.21 0.21 0.23 0.23 0.18 0.14 0.11 0.08 0.05 0.02 0.01 0.01 0.01 0.01 0.01 0.01 0.01 0.00 0.00 0.00 0.00 0.00 0.00 0.00 0.01 0.01 0.00 0.00 0.00
0.02 0.02 0.02 0.02 0.02 0.01 0.02 0.03 0.03 0.04 0.06 0.08 0.11 0.14 0.15 0.14 0.12 0.12 0.13 0.11 0.08 0.06 0.04 0.02 0.01 0.01 0.01 0.01 0.01 0.01 0.01 0.00 0.00 0.00 0.00 0.00 0.00 0.01 0.00 0.01 0.01 0.00 0.00 0.01
0.01 0.01 0.01 0.01 0.01 0.02 0.04 0.05 0.02 0.02 0.05 0.07 0.09 0.07 0.06 0.06 0.06 0.05 0.05 0.04 0.04 0.03 0.04 0.02 0.02 0.01 0.01 0.01 0.01 0.01 0.01 0.00 0.00 0.00 0.00 0.00 0.01 0.01 0.01 0.00 0.01 0.00 0.00 0.01
0.01 0.01 0.01 0.01 0.03 0.04 0.03 0.01 0.01 0.02 0.02 0.03 0.03 0.02 0.02 0.02 0.02 0.02 0.03 0.03 0.03 0.03 0.03 0.02 0.02 0.02 0.01 0.01 0.01 0.00 0.00 0.00 0.01 0.01 0.00 0.00 0.01 0.01 0.01 0.00 0.01 0.01 0.01 0.01
0.00 0.00 0.00 0.00 0.01 0.00 0.00 0.00 0.01 0.01 0.01 0.01 0.01 0.01 0.01 0.01 0.02 0.02 0.02 0.03 0.03 0.02 0.01 0.02 0.02 0.02 0.02 0.01 0.01 0.00 0.01 0.01 0.01 0.01 0.00 0.00 0.01 0.01 0.01 0.01 0.00 0.00 0.00 0.01
0.00 0.00 0.00 0.00 0.00 0.00 0.00 0.00 0.00 0.00 0.00 0.00 0.00 0.00 0.01 0.01 0.03 0.04 0.04 0.03 0.02 0.01 0.01 0.02 0.02 0.01 0.01 0.01 0.00 0.01 0.01 0.01 0.01 0.01 0.01 0.00 0.00 0.00 0.00 0.00 0.00 0.00 0.01 0.01
0.00 0.00 0.00 0.00 0.00 0.00 0.00 0.00 0.00 0.00 0.00 0.00 0.00 0.00 0.00 0.01 0.01 0.02 0.02 0.02 0.02 0.02 0.02 0.01 0.01 0.01 0.01 0.01 0.01 0.01 0.01 0.01 0.01 0.01 0.01 0.01 0.01 0.00 0.00 0.00 0.00 0.00 0.00 0.00
0.00 0.00 0.00 0.00 0.00 0.00 0.00 0.00 0.00 0.00 0.00 0.00 0.00 0.00 0.00 0.01 0.01 0.01 0.01 0.01 0.02 0.02 0.01 0.01 0.01 0.01 0.00 0.00 0.00 0.01 0.01 0.01 0.01 0.01 0.00 0.00 0.00 0.00 0.00 0.00 0.00 0.00 0.00 0.00
0.00 0.00 0.00 0.00 0.00 0.00 0.00 0.00 0.00 0.00 0.00 0.00 0.00 0.00 0.01 0.01 0.01 0.01 0.01 0.01 0.01 0.01 0.01 0.01 0.00 0.00 0.00 0.00 0.00 0.00 0.01 0.00 0.00 0.00 0.00 0.00 0.00 0.01 0.01 0.01 0.00 0.00 0.00 0.00
0.00 0.00 0.00 0.00 0.00 0.00 0.00 0.00 0.00 0.00 0.00 0.00 0.01 0.00 0.01 0.00 0.00 0.01 0.01 0.01 0.01 0.00 0.00 0.00 0.00 0.00 0.00 0.00 0.00 0.00 0.00 0.00 0.00 0.00 0.00 0.00 0.00 0.00 0.01 0.01 0.01 0.01 0.00 0.00
0.00 0.00 0.00 0.00 0.00 0.00 0.00 0.00 0.00 0.00 0.00 0.00 0.01 0.00 0.01 0.00 0.01 0.01 0.00 0.00 0.00 0.00 0.00 0.00 0.00 0.00 0.00 0.00 0.00 0.00 0.00 0.00 0.00 0.00 0.00 0.00 0.00 0.00 0.00 0.00 0.01 0.01 0.01 0.01
0.00 0.00 0.00 0.00 0.00 0.00 0.00 0.00 0.00 0.00 0.00 0.00 0.00 0.00 0.00 0.00 0.00 0.00 0.00 0.00 0.00 0.00 0.00 0.00 0.00 0.00 0.00 0.00 0.00 0.00 0.00 0.00 0.00 0.00 0.00 0.00 0.00 0.00 0.00 0.00 0.01 0.01 0.01 0.01
0.00 0.00 0.00 0.00 0.00 0.00 0.00 0.00 0.00 0.00 0.00 0.00 0.00 0.00 0.00 0.00 0.00 0.00 0.00 0.00 0.00 0.00 0.00 0.00 0.00 0.00 0.00 0.00 0.00 0.00 0.00 0.00 0.00 0.00 0.00 0.00 0.00 0.00 0.00 0.01 0.01 0.01 0.01 0.00
0.00 0.00 0.00 0.00 0.00 0.00 0.00 0.00 0.00 0.00 0.00 0.00 0.00 0.00 0.00 0.00 0.00 0.00 0.00 0.00 0.00 0.00 0.00 0.00 0.00 0.00 0.00 0.00 0.00 0.00 0.00 0.00 0.00 0.00 0.00 0.00 0.00 0.00 0.00 0.00 0.01 0.01 0.01 0.00
0.00 0.00 0.00 0.00 0.00 0.00 0.00 0.00 0.00 0.00 0.00 0.00 0.00 0.00 0.00 0.00 0.00 0.00 0.00 0.00 0.00 0.00 0.00 0.00 0.00 0.00 0.00 0.00 0.00 0.00 0.00 0.00 0.00 0.00 0.00 0.00 0.00 0.00 0.00 0.00 0.01 0.01 0.01 0.00
0.00 0.00 0.00 0.00 0.00 0.00 0.00 0.00 0.00 0.00 0.00 0.00 0.00 0.00 0.00 0.00 0.00 0.00 0.00 0.00 0.00 0.00 0.00 0.00 0.00 0.00 0.00 0.00 0.00 0.00 0.00 0.00 0.00 0.00 0.00 0.00 0.00 0.00 0.00 0.00 0.00 0.00 0.00 0.00
0.00 0.00 0.00 0.00 0.00 0.00 0.00 0.00 0.00 0.00 0.00 0.00 0.00 0.00 0.00 0.00 0.00 0.00 0.00 0.00 0.00 0.00 0.00 0.00 0.00 0.00 0.00 0.00 0.00 0.00 0.00 0.00 0.00 0.00 0.00 0.00 0.00 0.00 0.00 0.00 0.00 0.00 0.00 0.00
0.00 0.00 0.00 0.00 0.00 0.00 0.00 0.00 0.00 0.00 0.00 0.00 0.00 0.00 0.00 0.00 0.00 0.00 0.00 0.00 0.00 0.00 0.00 0.00 0.00 0.00 0.00 0.00 0.00 0.00 0.00 0.00 0.00 0.00 0.00 0.00 0.00 0.00 0.00 0.00 0.00 0.00 0.00 0.00
0.00 0.00 0.00 0.00 0.00 0.00 0.00 0.00 0.00 0.00 0.00 0.00 0.00 0.00 0.00 0.00 0.00 0.00 0.00 0.00 0.00 0.00 0.00 0.00 0.00 0.00 0.00 0.00 0.00 0.00 0.00 0.00 0.00 0.00 0.00 0.00 0.00 0.00 0.00 0.00 0.00 0.00 0.00 0.00
0.00 0.00 0.00 0.00 0.00 0.00 0.00 0.00 0.00 0.00 0.00 0.00 0.00 0.00 0.00 0.00 0.00 0.00 0.00 0.00 0.00 0.00 0.00 0.00 0.00 0.00 0.00 0.00 0.00 0.00 0.00 0.00 0.00 0.00 0.00 0.00 0.00 0.00 0.00 0.00 0.00 0.00 0.00 0.00
0.00 0.00 0.00 0.00 0.00 0.00 0.00 0.00 0.00 0.00 0.00 0.00 0.00 0.00 0.00 0.00 0.00 0.00 0.00 0.00 0.00 0.00 0.00 0.00 0.00 0.00 0.00 0.00 0.00 0.00 0.00 0.00 0.00 0.00 0.00 0.00 0.00 0.00 0.00 0.00 0.00 0.00 0.00 0.00
0.00 0.00 0.00 0.00 0.00 0.00 0.00 0.00 0.00 0.00 0.00 0.00 0.00 0.00 0.00 0.00 0.00 0.00 0.00 0.00 0.00 0.00 0.00 0.00 0.00 0.00 0.00 0.00 0.00 0.00 0.00 0.00 0.00 0.00 0.00 0.00 0.00 0.00 0.00 0.00 0.00 0.00 0.00 0.00
0.00 0.00 0.00 0.00 0.00 0.00 0.00 0.00 0.00 0.00 0.00 0.00 0.00 0.00 0.00 0.00 0.00 0.00 0.00 0.00 0.00 0.00 0.00 0.00 0.00 0.00 0.00 0.00 0.00 0.00 0.00 0.00 0.00 0.00 0.00 0.00 0.00 0.00 0.00 0.00 0.00 0.00 0.00 0.00
MSLP
1011.40 1011.28 1011.14 1011.01 1010.92 1010.93 1011.06 1011.33 1011.76 1012.32 1013.00 1013.78 1014.62 1015.48 1016.35 1017.20 1017.99 1018.74 1019.41 1020.01 1020.53 1020.99 1021.38 1021.72 1022.03 1022.31 1022.59 1022.87 1023.17 1023.48 1023.80 1024.11 1024.40 1024.67 1024.88 1025.05 1025.16 1025.22 1025.26 1025.28 1025.29 1025.31 1025.34 1025.38
1011.83 1011.88 1011.88 1011.87 1011.89 1011.98 1012.16 1012.45 1012.88 1013.43 1014.08 1014.82 1015.61 1016.43 1017.24 1018.02 1018.76 1019.44 1020.05 1020.59 1021.07 1021.48 1021.84 1022.15 1022.43 1022.70 1022.96 1023.23 1023.51 1023.80 1024.10 1024.39 1024.66 1024.90 1025.09 1025.24 1025.34 1025.40 1025.43 1025.45 1025.46 1025.47 1025.50 1025.53
1012.25 1012.43 1012.56 1012.68 1012.80 1012.97 1013.21 1013.55 1014.00 1014.56 1015.20 1015.92 1016.68 1017.46 1018.22 1018.95 1019.62 1020.23 1020.78 1021.25 1021.66 1022.01 1022.32 1022.60 1022.85 1023.10 1023.34 1023.60 1023.86 1024.13 1024.40 1024.66 1024.90 1025.11 1025.28 1025.40 1025.48 1025.53 1025.54 1025.55 1025.55 1025.56 1025.58 1025.59
1012.63 1012.89 1013.12 1013.33 1013.53 1013.78 1014.08 1014.47 1014.96 1015.54 1016.20 1016.92 1017.67 1018.43 1019.16 1019.84 1020.47 1021.02 1021.50 1021.91 1022.26 1022.56 1022.82 1023.06 1023.29 1023.51 1023.74 1023.98 1024.22 1024.47 1024.71 1024.93 1025.14 1025.31 1025.43 1025.52 1025.57 1025.59 1025.60 1025.59 1025.58 1025.58 1025.59 1025.61
1012.94 1013.25 1013.52 1013.78 1014.04 1014.34 1014.70 1015.13 1015.66 1016.27 1016.96 1017.70 1018.47 1019.22 1019.94 1020.61 1021.20 1021.71 1022.15 1022.51 1022.81 1023.07 1023.30 1023.51 1023.71 1023.92 1024.14 1024.36 1024.58 1024.81 1025.01 1025.20 1025.36 1025.48 1025.57 1025.61 1025.63 1025.62 1025.61 1025.59 1025.58 1025.58 1025.60 1025.61
1013.18 1013.49 1013.77 1014.05 1014.34 1014.67 1015.07 1015.54 1016.10 1016.75 1017.48 1018.24 1019.03 1019.81 1020.53 1021.19 1021.77 1022.26 1022.67 1023.00 1023.26 1023.49 1023.70 1023.89 1024.08 1024.28 1024.49 1024.70 1024.91 1025.10 1025.28 1025.43 1025.54 1025.62 1025.66 1025.67 1025.66 1025.63 1025.61 1025.60 1025.60 1025.61 1025.64 1025.67
1013.35 1013.64 1013.92 1014.19 1014.49 1014.84 1015.26 1015.76 1016.36 1017.04 1017.80 1018.60 1019.41 1020.20 1020.94 1021.60 1022.18 1022.65 1023.04 1023.35 1023.60 1023.81 1023.99 1024.18 1024.36 1024.56 1024.76 1024.96 1025.15 1025.33 1025.47 1025.58 1025.66 1025.70 1025.70 1025.69 1025.67 1025.65 1025.64 1025.65 1025.68 1025.73 1025.79 1025.84
1013.46 1013.73 1014.00 1014.27 1014.58 1014.94 1015.38 1015.90 1016.53 1017.24 1018.02 1018.84 1019.68 1020.48 1021.22 1021.89 1022.45 1022.92 1023.28 1023.58 1023.81 1024.01 1024.18 1024.36 1024.54 1024.73 1024.93 1025.12 1025.30 1025.45 1025.57 1025.65 1025.69 1025.71 1025.70 1025.69 1025.67 1025.68 1025.71 1025.77 1025.85 1025.95 1026.05 1026.15
1013.53 1013.80 1014.08 1014.36 1014.68 1015.07 1015.53 1016.08 1016.72 1017.45 1018.25 1019.09 1019.92 1020.72 1021.46 1022.10 1022.65 1023.09 1023.44 1023.71 1023.93 1024.11 1024.28 1024.44 1024.62 1024.81 1024.99 1025.17 1025.33 1025.46 1025.56 1025.62 1025.65 1025.66 1025.65 1025.66 1025.68 1025.73 1025.82 1025.95 1026.10 1026.27 1026.43 1026.56
1013.58 1013.88 1014.18 1014.50 1014.87 1015.29 1015.78 1016.36 1017.03 1017.77 1018.57 1019.40 1020.21 1020.99 1021.70 1022.31 1022.82 1023.23 1023.55 1023.80 1023.99 1024.15 1024.31 1024.46 1024.63 1024.80 1024.97 1025.14 1025.28 1025.39 1025.47 1025.52 1025.54 1025.55 1025.57 1025.61 1025.68 1025.80 1025.96 1026.17 1026.40 1026.63 1026.84 1027.01
1013.61 1013.97 1014.33 1014.72 1015.15 1015.62 1016.16 1016.78 1017.47 1018.21 1019.00 1019.80 1020.58 1021.32 1021.98 1022.54 1023.01 1023.37 1023.65 1023.87 1024.03 1024.17 1024.31 1024.45 1024.60 1024.76 1024.91 1025.05 1025.18 1025.27 1025.33 1025.37 1025.39 1025.41 1025.46 1025.53 1025.66 1025.85 1026.09 1026.37 1026.67 1026.97 1027.22 1027.41
1013.64 1014.07 1014.52 1015.00 1015.50 1016.05 1016.65 1017.30 1018.01 1018.75 1019.52 1020.28 1021.02 1021.69 1022.29 1022.80 1023.21 1023.53 1023.77 1023.95 1024.08 1024.20 1024.32 1024.44 1024.58 1024.71 1024.84 1024.96 1025.06 1025.13 1025.18 1025.20 1025.22 1025.26 1025.32 1025.44 1025.62 1025.86 1026.16 1026.50 1026.86 1027.19 1027.47 1027.67
1013.65 1014.18 1014.72 1015.30 1015.89 1016.52 1017.18 1017.87 1018.59 1019.32 1020.06 1020.78 1021.46 1022.08 1022.61 1023.06 1023.41 1023.69 1023.89 1024.04 1024.16 1024.26 1024.36 1024.47 1024.58 1024.70 1024.81 1024.90 1024.97 1025.01 1025.03 1025.04 1025.06 1025.10 1025.18 1025.32 1025.54 1025.82 1026.15 1026.53 1026.91 1027.26 1027.54 1027.72
1013.66 1014.27 1014.91 1015.58 1016.26 1016.96 1017.67 1018.40 1019.13 1019.85 1020.56 1021.24 1021.86 1022.41 1022.89 1023.29 1023.60 1023.84 1024.02 1024.16 1024.26 1024.35 1024.44 1024.54 1024.63 1024.72 1024.81 1024.87 1024.91 1024.92 1024.92 1024.91 1024.92 1024.95 1025.04 1025.19 1025.42 1025.71 1026.06 1026.44 1026.82 1027.17 1027.43 1027.58
1013.65 1014.34 1015.07 1015.82 1016.58 1017.34 1018.09 1018.84 1019.57 1020.28 1020.96 1021.59 1022.17 1022.67 1023.11 1023.47 1023.76 1023.98 1024.14 1024.27 1024.38 1024.47 1024.56 1024.64 1024.72 1024.79 1024.85 1024.88 1024.89 1024.88 1024.85 1024.82 1024.81 1024.83 1024.91 1025.06 1025.29 1025.57 1025.91 1026.28 1026.64 1026.95 1027.18 1027.30
1013.62 1014.39 1015.19 1016.00 1016.82 1017.62 1018.41 1019.16 1019.89 1020.58 1021.23 1021.83 1022.36 1022.84 1023.24 1023.59 1023.86 1024.08 1024.25 1024.39 1024.50 1024.60 1024.69 1024.77 1024.84 1024.89 1024.92 1024.93 1024.91 1024.87 1024.82 1024.77 1024.74 1024.75 1024.82 1024.96 1025.17 1025.43 1025.75 1026.08 1026.41 1026.68 1026.88 1026.96
1013.61 1014.43 1015.28 1016.14 1016.99 1017.82 1018.61 1019.37 1020.08 1020.75 1021.37 1021.94 1022.46 1022.91 1023.31 1023.65 1023.93 1024.16 1024.35 1024.50 1024.63 1024.74 1024.83 1024.90 1024.96 1024.99 1025.00 1024.99 1024.94 1024.88 1024.81 1024.75 1024.71 1024.72 1024.77 1024.90 1025.09 1025.33 1025.62 1025.91 1026.20 1026.44 1026.59 1026.65
1013.62 1014.48 1015.37 1016.26 1017.13 1017.96 1018.75 1019.49 1020.18 1020.83 1021.43 1021.98 1022.48 1022.92 1023.32 1023.67 1023.97 1024.22 1024.44 1024.61 1024.76 1024.87 1024.97 1025.03 1025.08 1025.09 1025.08 1025.05 1024.99 1024.91 1024.83 1024.77 1024.72 1024.73 1024.78 1024.90 1025.07 1025.29 1025.55 1025.82 1026.06 1026.27 1026.40 1026.44
1013.68 1014.58 1015.49 1016.39 1017.25 1018.07 1018.84 1019.55 1020.22 1020.84 1021.42 1021.95 1022.45 1022.90 1023.31 1023.68 1024.00 1024.28 1024.52 1024.72 1024.88 1025.00 1025.09 1025.15 1025.18 1025.18 1025.15 1025.09 1025.02 1024.94 1024.87 1024.81 1024.77 1024.78 1024.84 1024.96 1025.12 1025.33 1025.57 1025.81 1026.03 1026.21 1026.33 1026.36
1013.81 1014.74 1015.65 1016.54 1017.39 1018.18 1018.92 1019.60 1020.23 1020.83 1021.38 1021.91 1022.40 1022.86 1023.29 1023.68 1024.03 1024.33 1024.59 1024.81 1024.98 1025.10 1025.19 1025.24 1025.25 1025.24 1025.19 1025.13 1025.06 1024.98 1024.91 1024.86 1024.85 1024.88 1024.95 1025.07 1025.24 1025.44 1025.66 1025.88 1026.09 1026.25 1026.36 1026.40
1014.02 1014.95 1015.87 1016.73 1017.55 1018.30 1018.99 1019.64 1020.23 1020.80 1021.34 1021.85 1022.34 1022.81 1023.26 1023.67 1024.04 1024.37 1024.65 1024.87 1025.05 1025.17 1025.25 1025.29 1025.29 1025.26 1025.21 1025.15 1025.08 1025.01 1024.96 1024.94 1024.95 1024.99 1025.08 1025.22 1025.39 1025.59 1025.80 1026.01 1026.19 1026.35 1026.45 1026.50
1014.29 1015.22 1016.11 1016.95 1017.72 1018.42 1019.06 1019.66 1020.22 1020.75 1021.27 1021.77 1022.27 1022.74 1023.20 1023.63 1024.02 1024.36 1024.65 1024.89 1025.06 1025.19 1025.26 1025.29 1025.29 1025.26 1025.21 1025.15 1025.09 1025.05 1025.02 1025.02 1025.06 1025.13 1025.24 1025.38 1025.55 1025.75 1025.95 1026.14 1026.32 1026.46 1026.56 1026.62
1014.59 1015.50 1016.36 1017.15 1017.87 1018.51 1019.11 1019.66 1020.18 1020.68 1021.17 1021.67 1022.15 1022.63 1023.10 1023.53 1023.93 1024.28 1024.58 1024.82 1025.00 1025.12 1025.20 1025.23 1025.23 1025.20 1025.17 1025.13 1025.09 1025.08 1025.08 1025.11 1025.17 1025.26 1025.38 1025.54 1025.71 1025.90 1026.09 1026.27 1026.43 1026.56 1026.66 1026.72
1014.88 1015.75 1016.56 1017.30 1017.96 1018.55 1019.09 1019.60 1020.08 1020.55 1021.03 1021.51 1021.99 1022.46 1022.92 1023.36 1023.76 1024.11 1024.41 1024.65 1024.84 1024.96 1025.04 1025.08 1025.10 1025.09 1025.08 1025.07 1025.07 1025.09 1025.12 1025.18 1025.27 1025.38 1025.52 1025.67 1025.84 1026.02 1026.20 1026.36 1026.51 1026.64 1026.74 1026.81
1015.09 1015.92 1016.68 1017.36 1017.96 1018.50 1019.00 1019.47 1019.92 1020.37 1020.82 1021.29 1021.75 1022.22 1022.67 1023.10 1023.50 1023.84 1024.14 1024.38 1024.56 1024.70 1024.79 1024.85 1024.89 1024.92 1024.94 1024.97 1025.01 1025.07 1025.14 1025.24 1025.35 1025.48 1025.63 1025.79 1025.95 1026.12 1026.28 1026.44 1026.58 1026.70 1026.80 1026.88
1015.19 1015.97 1016.67 1017.29 1017.85 1018.35 1018.81 1019.25 1019.68 1020.12 1020.56 1021.01 1021.46 1021.91 1022.35 1022.77 1023.14 1023.48 1023.76 1024.00 1024.18 1024.33 1024.44 1024.53 1024.60 1024.67 1024.74 1024.82 1024.91 1025.01 1025.13 1025.26 1025.40 1025.55 1025.70 1025.86 1026.03 1026.18 1026.34 1026.49 1026.63 1026.75 1026.87 1026.97
1015.13 1015.85 1016.50 1017.09 1017.61 1018.09 1018.53 1018.97 1019.39 1019.81 1020.25 1020.69 1021.13 1021.56 1021.98 1022.37 1022.72 1023.04 1023.30 1023.53 1023.72 1023.87 1024.01 1024.12 1024.23 1024.35 1024.47 1024.60 1024.74 1024.90 1025.06 1025.23 1025.40 1025.57 1025.74 1025.90 1026.06 1026.22 1026.38 1026.53 1026.67 1026.81 1026.95 1027.08
Thickness
5659 5663 5665 5662 5664 5670 5672 5675 5675 5667 5655 5643 5636 5630 5621 5614 5608 5603 5598 5594 5591 5587 5584 5582 5580 5578 5576 5573 5571 5569 5566 5562 5558 5555 5551 5547 5544 5540 5537 5534 5531 5527 5523 5520
5649 5656 5657 5650 5651 5654 5653 5656 5656 5649 5636 5634 5627 5620 5610 5604 5599 5592 5587 5582 5578 5574 5571 5568 5565 5563 5561 5558 5556 5554 5552 5549 5545 5541 5538 5534 5531 5527 5524 5521 5517 5514 5510 5507
5642 5648 5651 5635 5634 5638 5636 5637 5639 5631 5621 5618 5610 5605 5599 5593 5588 5582 5576 5570 5565 5562 5558 5555 5552 5550 5548 5546 5544 5543 5540 5537 5534 5530 5527 5524 5521 5516 5512 5509 5505 5501 5497 5493
5645 5641 5626 5623 5635 5633 5627 5621 5622 5615 5608 5602 5596 5590 5586 5582 5576 5569 5563 5558 5554 5550 5547 5544 5541 5539 5538 5536 5535 5533 5530 5526 5523 5520 5516 5512 5509 5505 5501 5497 5494 5490 5485 5481
5643 5635 5623 5623 5627 5629 5622 5608 5607 5601 5594 5589 5584 5579 5570 5567 5564 5559 5553 5548 5544 5540 5537 5535 5533 5531 5529 5527 5525 5523 5519 5516 5512 5509 5506 5502 5499 5494 5490 5487 5483 5480 5475 5470
5639 5630 5620 5619 5625 5627 5621 5601 5599 5595 5588 5583 5581 5575 5560 5554 5551 5547 5542 5538 5534 5531 5529 5527 5524 5523 5521 5519 5516 5513 5510 5506 5502 5499 5496 5492 5488 5485 5481 5478 5474 5471 5465 5460
5636 5629 5622 5620 5622 5620 5607 5600 5596 5591 5585 5581 5577 5571 5554 5546 5541 5537 5533 5530 5527 5524 5521 5519 5517 5514 5512 5510 5506 5503 5500 5497 5493 5490 5487 5483 5479 5475 5472 5470 5466 5462 5457 5452
5633 5626 5615 5616 5619 5611 5602 5601 5594 5587 5581 5574 5565 5556 5546 5540 5535 5531 5527 5523 5520 5518 5515 5512 5509 5507 5504 5501 5497 5494 5492 5489 5485 5482 5480 5477 5472 5468 5465 5462 5461 5457 5451 5446
5630 5619 5611 5611 5608 5604 5603 5595 5588 5581 5574 5566 5557 5548 5541 5535 5530 5526 5522 5518 5516 5513 5509 5505 5502 5500 5497 5492 5489 5487 5484 5481 5478 5475 5472 5469 5467 5464 5462 5458 5457 5453 5448 5443
5624 5613 5609 5607 5604 5601 5597 5590 5584 5577 5568 5561 5551 5543 5536 5531 5526 5522 5517 5515 5512 5508 5504 5500 5497 5493 5489 5486 5482 5480 5477 5474 5472 5470 5468 5464 5461 5460 5458 5455 5451 5447 5442 5439
5623 5613 5607 5602 5600 5595 5589 5584 5577 5569 5563 5555 5548 5540 5534 5528 5523 5519 5515 5510 5507 5503 5499 5495 5491 5487 5483 5479 5475 5473 5471 5469 5467 5466 5464 5459 5457 5451 5449 5443 5437 5435 5435 5433
5630 5621 5616 5602 5596 5591 5584 5577 5571 5563 5556 5550 5544 5537 5531 5525 5520 5515 5511 5506 5502 5498 5494 5490 5486 5481 5477 5473 5470 5468 5466 5465 5464 5462 5460 5459 5456 5450 5437 5434 5429 5425 5422 5420
5634 5628 5619 5604 5596 5589 5581 5574 5567 5560 5553 5546 5539 5533 5528 5522 5517 5512 5507 5503 5498 5494 5490 5485 5481 5477 5472 5468 5465 5463 5461 5460 5460 5459 5458 5456 5454 5451 5445 5434 5427 5424 5421 5419
5629 5621 5609 5601 5593 5585 5577 5570 5563 5556 5549 5542 5536 5530 5524 5519 5513 5508 5503 5499 5494 5490 5485 5481 5477 5472 5468 5465 5462 5460 5458 5455 5455 5456 5455 5454 5451 5448 5445 5442 5437 5432 5424 5420
5626 5622 5611 5601 5591 5581 5574 5566 5559 5551 5544 5538 5532 5527 5521 5516 5510 5505 5500 5496 5491 5486 5482 5477 5473 5468 5464 5462 5459 5458 5457 5456 5454 5454 5453 5451 5449 5446 5444 5440 5438 5435 5431 5426
5624 5617 5607 5597 5587 5579 5572 5565 5558 5550 5543 5536 5530 5524 5519 5514 5508 5502 5497 5492 5488 5484 5479 5474 5469 5465 5461 5458 5456 5456 5454 5446 5448 5452 5452 5449 5447 5444 5442 5439 5437 5434 5431 5429
5622 5612 5605 5595 5586 5579 5572 5566 5558 5550 5543 5536 5529 5523 5517 5512 5506 5500 5495 5491 5485 5480 5475 5471 5466 5462 5459 5456 5455 5456 5455 5450 5442 5449 5450 5447 5445 5442 5440 5438 5435 5433 5430 5425
5628 5619 5610 5600 5590 5581 5572 5565 5557 5550 5543 5536 5529 5522 5516 5511 5506 5499 5494 5488 5483 5478 5473 5468 5463 5459 5456 5454 5452 5455 5454 5453 5451 5450 5447 5445 5443 5441 5439 5436 5434 5432 5430 5429
5626 5617 5608 5599 5590 5581 5573 5565 5557 5550 5542 5535 5528 5522 5516 5511 5505 5499 5493 5489 5484 5478 5472 5466 5456 5456 5454 5450 5448 5451 5453 5452 5450 5448 5445 5438 5441 5440 5437 5436 5433 5432 5431 5430
5622 5614 5606 5597 5589 5581 5572 5564 5556 5548 5541 5535 5529 5522 5516 5511 5505 5500 5494 5490 5486 5480 5472 5465 5461 5458 5454 5451 5448 5454 5453 5452 5450 5447 5445 5443 5442 5439 5437 5436 5433 5432 5431 5431
5620 5612 5604 5596 5587 5580 5572 5564 5556 5547 5541 5535 5529 5523 5517 5511 5506 5501 5497 5494 5483 5477 5472 5464 5464 5462 5458 5454 5451 5457 5455 5452 5450 5447 5445 5443 5441 5440 5437 5436 5434 5433 5432 5431
5618 5610 5603 5595 5586 5578 5570 5563 5555 5548 5541 5535 5530 5525 5519 5512 5508 5503 5498 5495 5486 5476 5477 5475 5470 5462 5459 5455 5461 5460 5457 5453 5451 5449 5446 5444 5442 5440 5438 5436 5435 5434 5433 5432
5617 5609 5601 5593 5585 5577 5569 5562 5555 5548 5541 5536 5531 5526 5521 5517 5514 5509 5503 5495 5490 5481 5481 5478 5468 5462 5459 5462 5464 5462 5459 5455 5453 5450 5448 5446 5444 5442 5440 5438 5437 5435 5434 5433
5614 5607 5599 5592 5584 5575 5568 5562 5555 5548 5542 5537 5532 5527 5523 5519 5514 5512 5506 5494 5489 5484 5485 5477 5469 5466 5462 5469 5468 5465 5462 5458 5456 5454 5451 5449 5447 5445 5442 5440 5439 5438 5436 5434
5612 5605 5597 5589 5582 5576 5568 5561 5554 5548 5543 5539 5534 5529 5525 5523 5519 5514 5508 5501 5492 5487 5489 5480 5473 5470 5471 5475 5472 5469 5466 5463 5461 5457 5454 5451 5450 5448 5445 5443 5441 5440 5439 5437
5608 5602 5595 5589 5584 5578 5571 5564 5557 5551 5547 5542 5537 5532 5528 5524 5520 5515 5508 5504 5499 5492 5493 5490 5484 5477 5481 5479 5475 5472 5468 5463 5460 5458 5457 5455 5453 5450 5448 5446 5443 5442 5441 5439
5604 5598 5591 5587 5582 5578 5572 5566 5560 5554 5550 5545 5541 5535 5531 5526 5522 5518 5513 5510 5506 5502 5500 5497 5494 5490 5487 5484 5480 5475 5472 5469 5465 5463 5460 5458 5456 5454 5452 5448 5447 5445 5443 5442